Regional Weather Roundup
Issued by NWS

Home | Current Version | Previous Version | Graphics & Text | Print | Product List | Glossary Off
Versions: 1 2 3 4 5 6 7 8 9 10 11 12 13 14 15 16 17 18 19 20 21 22 23 24 25 26 27 28 29 30 31 32 33 34 35 36 37 38 39 40 41 42 43 44 45 46 47 48 49 50

000
ASUS43 KDMX 161901
RWRIA

WEATHER ROUNDUP FOR IOWA
NATIONAL WEATHER SERVICE DES MOINES IA
100 PM CST SAT DEC 16 2017

NOTE: "FAIR" INDICATES FEW OR NO CLOUDS BELOW 12,000 FEET WITH NO
SIGNIFICANT WEATHER AND/OR OBSTRUCTIONS TO VISIBILITY.

* - THESE STATIONS ARE NOT NWS STATIONS...THUS NOT UNDER NWS
QUALITY CONTROL.  THEY ALSO DO NOT REPORT WEATHER SUCH
AS PRECIPITATION OR FOG.

IAZ001>003-012>014-020>022-031>034-043>046-162000-
   NORTHWEST IOWA

CITY           SKY/WX    TMP DP  RH WIND       PRES   REMARKS
CARROLL *      CLOUDY    50  28  43 NW9       29.83S
CHEROKEE *     MOSUNNY   45  29  54 N6        29.85R
LE MARS *      MOSUNNY   45  30  57 N8G14     29.85F
ORANGE CITY *  MOSUNNY   45  30  57 N8        29.85S
SHELDON *      CLOUDY    41  30  65 NW9       29.84S
SIOUX CITY     MOSUNNY   47  30  51 NW8       29.87R
SPENCER        MOSUNNY   44  29  55 N10       29.84S
STORM LAKE *   PTSUNNY   48  28  46 N7G13     29.84R
$$

IAZ055>058-069>071-079>083-090>094-162000-
   SOUTHWEST IOWA

CITY           SKY/WX    TMP DP  RH WIND       PRES   REMARKS
ATLANTIC *     MOSUNNY   50  25  37 CALM      29.83F
AUDUBON *      MOSUNNY   48  25  40 CALM      29.84S
CLARINDA *     SUNNY     50  27  40 VRB5        N/A
COUNCIL BLFS * CLOUDY    52  25  35 N5        29.83S
CRESTON *      SUNNY     52  27  37 SW10      29.85S
HARLAN  *      MOSUNNY   50  27  40 NW9       29.87S
LAMONI         SUNNY     50  26  39 SW9       29.84F
RED OAK *      SUNNY     52  25  35 W5        29.84F
SHENANDOAH *   SUNNY     50  25  37 CALM      29.85F
$$

IAZ047>049-059>061-072>074-084-162000-
   CENTRAL IOWA

CITY           SKY/WX    TMP DP  RH WIND       PRES   REMARKS
AMES           SUNNY     51  27  39 NW5       29.83R
ANKENY *       SUNNY     50  27  40 CALM      29.84S
BOONE *        SUNNY     50  27  40 NW7       29.82S
CHARITON *     SUNNY     50  27  40 SW9       29.84S
DES MOINES     PTSUNNY   50  26  39 VRB5      29.83S
GRINNELL*      SUNNY     48  27  43 SW5       29.84S
KNOXVILLE *    SUNNY     52  25  35 S9        29.82S
MARSHALLTOWN   SUNNY     50  27  40 W6        29.82S
NEWTON *       SUNNY     48  27  43 VRB6      29.83S
PELLA *        SUNNY     50  25  37 W5        29.85S
$$

IAZ004>006-015-016-023>025-035-036-162000-
   NORTH CENTRAL IOWA

CITY           SKY/WX    TMP DP  RH WIND       PRES   REMARKS
ALGONA *       MOSUNNY   45  32  61 VRB7      29.82F
CLARION *      MOSUNNY   48  32  53 NW8       29.83R
ESTHERVILLE    MOSUNNY   44  31  60 N10       29.83S
FORT DODGE *   MOSUNNY   49  29  46 N6        29.83R
MASON CITY     PTSUNNY   45  28  51 N7        29.83S
FOREST CITY *    N/A     43  30  61 N5        29.82S
WEBSTER CITY * CLOUDY    48  28  46 N6        29.81R
IOWA FALLS *     N/A     50  29  44 CALM      29.82S
$$

IAZ007>011-017>019-026>030-037>042-050>054-066-162000-
   NORTHEAST IOWA

CITY           SKY/WX    TMP DP  RH WIND       PRES   REMARKS
CEDAR RAPIDS   SUNNY     49  26  41 SW6       29.83S
CHARLES CITY * MOSUNNY   45  28  53 VRB5      29.82S
CLINTON *      SUNNY     48  27  44 SW8       29.86S
DECORAH *      MOSUNNY   39  27  60 E8        29.82S WCI  34
DUBUQUE        SUNNY     44  26  49 CALM      29.85R
MONTICELLO *   SUNNY     46  27  46 CALM      29.84R
OELWEIN *      CLOUDY    45  28  53 CALM      29.83S
WATERLOO       SUNNY     46  25  43 N3        29.83R
$$

IAZ064-065-067-068-078-162000-
   EAST CENTRAL IOWA

CITY           SKY/WX    TMP DP  RH WIND       PRES   REMARKS
DAVENPORT      SUNNY     48  26  42 SW7       29.87F
IOWA CITY      SUNNY     50  27  40 W6        29.86F
MT. PLEASANT * SUNNY     51  24  34 SW12      29.86F
MUSCATINE *    SUNNY     50  27  40 SW7       29.86F
QUAD CITIES    SUNNY     50  26  39 SW7       29.85
$$

IAZ062-063-075>077-085>089-095>099-162000-
   SOUTHEAST IOWA

CITY           SKY/WX    TMP DP  RH WIND       PRES   REMARKS
BURLINGTON     SUNNY     51  28  41 SW13      29.86F
FAIRFIELD *    SUNNY     52  25  35 VRB6G13   29.84F
FORT MADISON * SUNNY     52  28  40 SW9       29.87F
KEOKUK *       SUNNY     54  28  37 SW15      29.87F
OSKALOOSA *      N/A     51  26  39 SW8       29.85S
OTTUMWA        SUNNY     51  25  36 SW9       29.84F
WASHINGTON *   SUNNY     52  27  37 SW7       29.86S
$$

ABBREVIATIONS USED IN REMARKS
   TC - TEMPERATURES IN CELSIUS
  WCI - WIND CHILL INDEX
   HX - HEAT INDEX
  VSB - VISIBILITY
$$





USA.gov is the U.S. government's official web portal to all federal, state and local government web resources and services.